Regional Weather Roundup
Issued by NWS Mt. Holly, NJ

Home | Current Version | Previous Version | Text Only | Print | Product List | Glossary On
Versions: 1 2 3 4 5 6 7 8 9 10 11 12 13 14 15 16 17 18 19 20 21 22 23 24 25 26 27 28 29 30 31 32 33 34 35 36 37 38 39 40 41 42 43 44 45 46 47 48 49 50
000
ASUS41 KPHI 180911
RWRPHI

REGIONAL WEATHER ROUNDUP
NATIONAL WEATHER SERVICE MOUNT HOLLY NJ
500 AM EDT SAT APR 18 2015

NOTE:  "FAIR" INDICATES FEW OR NO CLOUDS BELOW 12,000 FEET WITH NO
SIGNIFICANT WEATHER AND/OR OBSTRUCTIONS TO VISIBILITY.

 * = STATION DOES NOT REPORT PRECIPITATION (E.G. RAIN, SNOW, ETC.)
        OR FOG.

NJZ015>026-181000-
SOUTHERN NEW JERSEY

CITY           SKY/WX    TMP DP  RH WIND       PRES   REMARKS
POMONA         FOG       56  53  90 CALM      29.96F VSB 3/4
MILLVILLE      FOG       53  53 100 CALM      29.96S VSB 1/2
WRIGHTSTOWN    PTCLDY    52  52 100 CALM      29.94S
MOUNT HOLLY    FOG       52  50  93 CALM      29.97F VSB 3/4
TRENTON        CLEAR     52  48  86 N3        29.97S

$$
NJZ001>014-181000-
NORTHERN NEW JERSEY

CITY           SKY/WX    TMP DP  RH WIND       PRES   REMARKS
SUSSEX         PTCLDY    43  40  89 CALM      29.98F FOG
ANDOVER*         N/A     44  43  96 CALM      29.98S
MORRISTOWN     CLEAR     46  43  87 CALM      29.98S FOG
NEWARK         PTCLDY    59  46  62 CALM      29.96F
TETERBORO      CLEAR     50  44  80 CALM      29.95S
CALDWELL       CLEAR     49  43  80 CALM      29.98R
SOMERVILLE     CLEAR     45  43  93 CALM      29.96S FOG
ALLAIRE*       CLOUDY    57  46  67 N5        29.97S
TOMS RIVER*    PTCLDY    48  45  87 CALM      29.98S

$$
PAZ043-044-047-054-055-060>062-066>071-181000-
EASTERN PENNSYLVANIA

CITY           SKY/WX    TMP DP  RH WIND       PRES   REMARKS
PHILADELPHIA   PTCLDY    56  52  86 E3        29.98S
NORTH PHILA    CLEAR     54  48  80 CALM      29.99S
BLUE BELL      CLEAR     52  50  93 CALM      29.97S
DOYLESTOWN     CLEAR     50  50 100 CALM      29.97S
QUAKERTOWN*    CLEAR     45  45 100 CALM      29.99S
POTTSTOWN      PTCLDY    48  48 100 CALM      29.99F FOG
LANCASTER      CLEAR     50  48  93 CALM      29.98S FOG
COATESVILLE    CLEAR     55  50  82 N5        29.99S
READING        CLEAR     49  46  90 CALM      29.98S
ALLENTOWN      CLEAR     45  45 100 W3        29.98S FOG
MOUNT POCONO   CLEAR     44  41  89 NW6       29.98F
HAZLETON       PTCLDY    45  45 100 CALM      30.02F FOG
WILKES BARRE   CLEAR     47  43  86 E5        29.99S

$$
DEZALL-MDZ008-012-015-019-020-181000-
DELAWARE AND EASTERN MARYLAND

CITY           SKY/WX    TMP DP  RH WIND       PRES   REMARKS
WILMINGTON     CLEAR     55  50  83 N7        29.97S
DOVER          CLEAR     57  57 100 NW2       29.91F
GEORGETOWN     FOG       56  55  97 CALM      29.96S VSB 1/4
EASTON         FOG      N/A N/A N/A CALM      30.00S VSB 1/4
PATUXENT       PTCLDY    59  57  93 NW9       29.96S
OCEAN CITY     FOG       55  55 100 CALM      29.96S VSB 1/4
WALLOPS ISLAND MOCLDY    57  57 100 CALM      29.95S
CAMBRIDGE      CLOUDY    57  55  94 CALM      29.96S VSB 1/2
SALISBURY      FOG       59  59 100 CALM      29.95S VSB 1/4

$$
PAZ001-021-NYZ056-072-MDZ011-DCZ001-181000-
OTHER NEARBY LOCATIONS

CITY           SKY/WX    TMP DP  RH WIND       PRES   REMARKS
HARRISBURG     PTCLDY    48  44  86 CALM      29.99R
STATE COLLEGE  CLEAR     47  44  90 CALM      30.02R
WILLIAMSPORT   CLEAR     45  43  93 NW3       30.00S
BINGHAMTON     CLEAR     47  44  90 W6        29.98S
NEW YORK CITY  CLEAR     60  44  55 CALM      29.99S
BALTIMORE      PTCLDY    55  53  93 W3        29.97S
WASHINGTON DC  PTCLDY    61  56  83 N7        29.98S

$$


USA.gov is the U.S. government's official web portal to all federal, state and local government web resources and services.